[[{"header":{"parameterUnit":"m.s-1","parameterCategory":1,"la1":30.2991,"la2":30.254,"lo1":-89.0895,"lo2":-89.0444,"dy":0.0017,"dx":0.0017,"nx":28,"ny":28,"refTime":"2024-08-19T03:00:00:Z","depth":0,"parameterNumber":2,"parameterNumberName":"U-component_of_WINDS"},"data":[0,0,0,0,0,0,0,0,0,0,0,0,0,0,0,0,0,0,0,0,0,0,0,0,0,0,0,0,0,0,0,0,0,0,0,0,0,0,0,0,0,0,0,0,0,0,0,0,0,0,0,0,0,0,0,0,0,0,-0.4774,-0.4777,0,-0.4994,-0.4996,-0.4999,-0.5067,-0.5066,-0.5065,-0.5064,-0.5297,-0.5304,-0.5311,0,0,0,0,0,0,0,0,0,0,0,0,0,-0.4422,-0.4428,-0.4774,-0.4777,-0.4779,-0.4993,-0.4996,-0.4999,-0.5068,-0.5066,-0.5065,-0.5064,-0.5295,-0.5303,-0.5312,0,0,0,0,0,0,0,0,0,0,0,0,0,-0.4602,-0.443,-0.4774,-0.4839,-0.4847,-0.4993,-0.4996,-0.5,-0.5068,-0.5066,-0.5065,-0.5063,-0.5292,-0.5303,-0.5313,-0.5412,0,0,-0.5346,-0.5351,0,0,0,0,0,0,0,0,-0.4592,-0.4615,-0.4827,-0.4835,-0.4844,-0.5001,-0.4958,-0.5139,-0.5068,-0.4984,-0.5064,-0.5062,-0.5201,-0.5219,-0.5264,-0.5423,-0.5433,-0.5347,-0.5354,-0.5358,-0.5362,0,0,0,0,0,0,0,-0.4579,-0.4606,-0.4861,-0.483,-0.484,-0.486,-0.4884,-0.4992,-0.5099,-0.4991,-0.4997,-0.5022,-0.5205,-0.5253,-0.527,-0.5436,-0.5347,-0.5357,-0.5363,-0.5367,-0.569,-0.5692,0,0,0,0,0,0,-0.4554,-0.4595,-0.4854,-0.4868,-0.4711,-0.4868,-0.4894,-0.4953,-0.5098,-0.5118,-0.5023,-0.5024,-0.5236,-0.5257,-0.5278,-0.5405,-0.5358,-0.5369,-0.5375,-0.5688,-0.5691,-0.5693,0,0,0,0,0,0,-0.4546,-0.4577,-0.4845,-0.4733,-0.4769,-0.4876,-0.494,-0.4958,-0.5006,-0.5121,-0.5142,-0.5052,-0.5235,-0.5263,-0.5378,-0.5414,-0.5373,-0.5383,-0.5686,-0.5689,-0.5692,-0.5658,0,0,0,0,0,0,-0.4536,-0.4574,-0.461,-0.4733,-0.4774,-0.4939,-0.4943,-0.4963,-0.5023,-0.5027,-0.5154,-0.5174,-0.5236,-0.5362,-0.5389,-0.5428,-0.5392,-0.5683,-0.5687,-0.5691,-0.5657,-0.566,-0.5662,0,0,0,0,0,-0.4523,-0.4593,-0.4612,-0.4643,-0.4822,-0.4941,-0.4965,-0.5033,-0.5026,-0.5065,-0.514,-0.517,-0.5405,-0.5373,-0.5404,-0.5447,-0.5681,-0.5686,-0.5691,-0.5655,-0.5659,-0.5662,0,0,0,0,0,0,-0.4475,-0.4611,-0.4632,-0.4744,-0.483,-0.4952,-0.5003,-0.5034,-0.5126,-0.5126,-0.5209,-0.5238,-0.5347,-0.5409,-0.537,-0.5552,-0.5545,-0.5556,-0.5507,-0.5512,-0.5515,-0.5498,-0.5401,0,0,0,0,0,-0.4476,-0.4558,-0.4674,-0.4761,-0.4803,-0.4895,-0.495,-0.4995,-0.5088,-0.5126,-0.5209,-0.5301,-0.5397,-0.5458,-0.5551,-0.5666,-0.5696,-0.5711,-0.5714,-0.5715,-0.5725,-0.5792,-0.5801,-0.5709,-0.5709,-0.5708,0,0,-0.4482,-0.4566,-0.4614,-0.4754,-0.4826,-0.4912,-0.4926,-0.5016,-0.5082,-0.5141,-0.5254,-0.5318,-0.5427,-0.5542,-0.5597,-0.5597,-0.5757,-0.5722,-0.5722,-0.5731,-0.5798,-0.5806,-0.5814,-0.5712,-0.5711,-0.5711,0,0,-0.4535,-0.4606,-0.4687,-0.4759,-0.4867,-0.4928,-0.4947,-0.5065,-0.5109,-0.5223,-0.527,-0.5351,-0.5512,-0.5588,-0.5648,-0.5731,-0.5763,-0.5759,-0.5775,-0.584,-0.5847,-0.5854,-0.5886,-0.5896,-0.5768,-0.5768,-0.5768,0,-0.4529,-0.4658,-0.4726,-0.4814,-0.4876,-0.493,-0.5014,-0.5081,-0.5215,-0.5258,-0.5255,-0.5459,-0.5536,-0.5671,-0.5691,-0.5737,-0.5764,-0.5746,-0.584,-0.5848,-0.5855,-0.5886,-0.5898,-0.5767,-0.5767,-0.5767,-0.5767,0,-0.4646,-0.4735,-0.4788,-0.4914,-0.4981,-0.5067,-0.515,-0.5211,-0.525,-0.5312,-0.543,-0.5524,-0.5638,-0.5673,-0.5713,-0.5815,-0.5811,-0.5823,-0.5818,-0.5862,-0.5893,-0.5905,-0.5765,-0.5766,-0.5766,-0.5766,0,0,-0.4676,-0.4837,-0.4856,-0.4914,-0.5037,-0.5109,-0.5198,-0.5308,-0.5359,-0.545,-0.5529,-0.5664,-0.5676,-0.5744,-0.5793,-0.5849,-0.5912,-0.5855,-0.5859,-0.5864,-0.6032,-0.6023,-0.6036,-0.5933,-0.5936,-0.5938,-0.6024,0,-0.4747,-0.4906,-0.497,-0.51,-0.5185,-0.5238,-0.5316,-0.5402,-0.5462,-0.5545,-0.5614,-0.5709,-0.5716,-0.5758,-0.5816,-0.5891,-0.5947,-0.5886,-0.6011,-0.6014,-0.5983,-0.6052,-0.6043,-0.6119,-0.6036,-0.6038,-0.6039,0,-0.4851,-0.494,-0.5078,-0.5191,-0.523,-0.5298,-0.5404,-0.5482,-0.5581,-0.5622,-0.5697,-0.5743,-0.5842,-0.5829,-0.5969,-0.5926,-0.5981,-0.6026,-0.6031,-0.6047,-0.603,-0.6071,-0.6145,-0.6157,-0.6059,-0.6057,-0.6056,0,-0.4861,-0.5016,-0.5118,-0.5166,-0.5301,-0.5349,-0.5408,-0.5505,-0.5567,-0.5661,-0.5703,-0.5807,-0.5865,-0.5947,-0.6021,-0.6005,-0.6155,-0.6148,-0.6194,-0.6192,-0.6224,-0.6221,-0.631,-0.6256,-0.6256,-0.6256,-0.6256,0,-0.4934,-0.5017,-0.5125,-0.5188,-0.5283,-0.5357,-0.545,-0.5513,-0.56,-0.5679,-0.5732,-0.5805,-0.5898,-0.5984,-0.6043,-0.6151,-0.6177,-0.6215,-0.623,-0.6211,-0.6206,-0.6249,-0.6246,-0.6259,-0.6258,-0.6258,-0.6257,0,-0.4962,-0.5037,-0.5153,-0.527,-0.5302,-0.5367,-0.5469,-0.5535,-0.5597,-0.5697,-0.5724,-0.5824,-0.5929,-0.601,-0.6147,-0.6187,-0.6302,-0.6317,-0.6267,-0.6275,-0.6317,-0.6313,-0.6438,-0.6459,-0.6389,-0.639,-0.639,0,-0.5004,-0.5069,-0.5193,-0.5248,-0.5305,-0.5394,-0.5457,-0.5533,-0.5597,-0.5715,-0.5767,-0.5874,-0.5965,-0.613,-0.6217,-0.6323,-0.6342,-0.6379,-0.6359,-0.6338,-0.6345,-0.6341,-0.6349,-0.6382,-0.6382,-0.6382,-0.6383,0,-0.5072,-0.5106,-0.5193,-0.5294,-0.5367,-0.545,-0.5535,-0.5578,-0.5671,-0.574,-0.5846,-0.5916,-0.6055,-0.6162,-0.6277,-0.6341,-0.6379,-0.6388,-0.6405,-0.6387,-0.6355,-0.6375,-0.6275,-0.6385,-0.6385,-0.6385,-0.6384,-0.6384,-0.511,-0.517,-0.5267,-0.5363,-0.5434,-0.5512,-0.5579,-0.565,-0.5738,-0.5855,-0.5896,-0.6006,-0.6106,-0.6263,-0.6328,-0.6418,-0.642,-0.6444,-0.645,-0.6455,-0.6454,-0.6339,-0.6439,-0.6439,-0.6439,-0.6439,-0.6439,0,-0.5182,-0.5246,-0.5333,-0.545,-0.5526,-0.555,-0.5646,-0.5709,-0.5804,-0.5893,-0.598,-0.6103,-0.6208,-0.6302,-0.6412,-0.6466,-0.6486,-0.6492,-0.649,-0.6505,-0.6445,-0.642,-0.6474,-0.6474,-0.6474,-0.6474,-0.6474,-0.6474,-0.5228,-0.5332,-0.5377,-0.5518,-0.5583,-0.5689,-0.5741,-0.5815,-0.5887,-0.602,-0.6106,-0.6166,-0.6259,-0.6376,-0.6474,-0.65,-0.6539,-0.6541,-0.6571,-0.6513,-0.6509,-0.6505,-0.6482,-0.6548,-0.6548,-0.6624,-0.6625,-0.6625]},{"header":{"parameterUnit":"m.s-1","parameterCategory":1,"la1":30.2991,"la2":30.254,"lo1":-89.0895,"lo2":-89.0444,"dy":0.0017,"dx":0.0017,"nx":28,"ny":28,"refTime":"2024-08-19T03:00:00:Z","depth":0,"parameterNumber":3,"parameterNumberName":"V-component_of_WINDS"},"data":[0,0,0,0,0,0,0,0,0,0,0,0,0,0,0,0,0,0,0,0,0,0,0,0,0,0,0,0,0,0,0,0,0,0,0,0,0,0,0,0,0,0,0,0,0,0,0,0,0,0,0,0,0,0,0,0,0,0,-3.4791,-3.4791,0,-3.4751,-3.475,-3.475,-3.4641,-3.4638,-3.4636,-3.4634,-3.4595,-3.4596,-3.4597,0,0,0,0,0,0,0,0,0,0,0,0,0,-3.4778,-3.4779,-3.4792,-3.4791,-3.4791,-3.4751,-3.475,-3.475,-3.4641,-3.4638,-3.4635,-3.4633,-3.4595,-3.4596,-3.4598,0,0,0,0,0,0,0,0,0,0,0,0,0,-3.4765,-3.4779,-3.4792,-3.4732,-3.4726,-3.4751,-3.475,-3.4749,-3.4642,-3.4638,-3.4635,-3.4631,-3.4594,-3.4596,-3.4598,-3.4679,0,0,-3.4603,-3.4604,0,0,0,0,0,0,0,0,-3.4766,-3.4766,-3.4741,-3.4736,-3.4729,-3.4697,-3.4731,-3.4726,-3.4643,-3.4674,-3.4634,-3.463,-3.4632,-3.4631,-3.4631,-3.4677,-3.4675,-3.4603,-3.4604,-3.4605,-3.4606,0,0,0,0,0,0,0,-3.4767,-3.4767,-3.4775,-3.4741,-3.4734,-3.4707,-3.4702,-3.473,-3.4673,-3.4671,-3.4663,-3.4659,-3.4628,-3.4629,-3.4629,-3.4675,-3.4603,-3.4605,-3.4606,-3.4606,-3.4785,-3.4789,0,0,0,0,0,0,-3.4776,-3.4769,-3.4777,-3.4774,-3.4739,-3.4711,-3.4704,-3.4711,-3.4673,-3.4663,-3.4662,-3.4654,-3.4628,-3.4627,-3.4627,-3.4719,-3.4605,-3.4607,-3.4608,-3.4782,-3.4786,-3.479,0,0,0,0,0,0,-3.4777,-3.4778,-3.4778,-3.4769,-3.4767,-3.4714,-3.4723,-3.4712,-3.4713,-3.4666,-3.4656,-3.4674,-3.4625,-3.4625,-3.4667,-3.4717,-3.4607,-3.4609,-3.4777,-3.4783,-3.4788,-3.4905,0,0,0,0,0,0,-3.4777,-3.4779,-3.4809,-3.4771,-3.4768,-3.4818,-3.4726,-3.4714,-3.4716,-3.4705,-3.4674,-3.4666,-3.4623,-3.4665,-3.4668,-3.4717,-3.461,-3.4773,-3.478,-3.4787,-3.4897,-3.4914,-3.4929,0,0,0,0,0,-3.4777,-3.4844,-3.4811,-3.4812,-3.4804,-3.4821,-3.482,-3.4768,-3.472,-3.475,-3.472,-3.4667,-3.4711,-3.467,-3.4673,-3.4723,-3.4769,-3.4778,-3.4786,-3.4889,-3.4911,-3.4929,0,0,0,0,0,0,-3.489,-3.4838,-3.48,-3.4857,-3.4844,-3.4803,-3.4839,-3.4792,-3.4793,-3.4783,-3.472,-3.4714,-3.4765,-3.4748,-3.4703,-3.48,-3.4731,-3.4741,-3.4809,-3.4828,-3.4844,-3.4848,-3.4612,0,0,0,0,0,-3.4922,-3.4939,-3.4893,-3.4947,-3.4943,-3.4892,-3.4898,-3.4859,-3.4843,-3.4837,-3.481,-3.4798,-3.4809,-3.4818,-3.4825,-3.4893,-3.4885,-3.493,-3.4946,-3.4959,-3.4968,-3.5003,-3.5023,-3.4818,-3.4818,-3.4818,0,0,-3.4988,-3.4961,-3.4976,-3.497,-3.4955,-3.4975,-3.4888,-3.4913,-3.4928,-3.4841,-3.4879,-3.4859,-3.4841,-3.4897,-3.492,-3.4884,-3.5023,-3.497,-3.4981,-3.4983,-3.5014,-3.5033,-3.5051,-3.4823,-3.4822,-3.4821,0,0,-3.5117,-3.5099,-3.5142,-3.5129,-3.5108,-3.5073,-3.5084,-3.5049,-3.5032,-3.5069,-3.5004,-3.5021,-3.5041,-3.5031,-3.5029,-3.5155,-3.5106,-3.5159,-3.5244,-3.5279,-3.5295,-3.5309,-3.5354,-3.5371,-3.5168,-3.5168,-3.5168,0,-3.5202,-3.5229,-3.5171,-3.52,-3.5199,-3.5121,-3.5164,-3.5155,-3.5138,-3.514,-3.51,-3.5123,-3.5106,-3.5158,-3.5188,-3.5189,-3.52,-3.5162,-3.5297,-3.531,-3.5323,-3.5365,-3.5382,-3.5175,-3.5174,-3.5173,-3.5173,0,-3.5334,-3.5354,-3.5392,-3.5376,-3.5379,-3.5416,-3.5364,-3.5375,-3.5335,-3.5306,-3.5344,-3.532,-3.5321,-3.5331,-3.5293,-3.5378,-3.5356,-3.5308,-3.5238,-3.535,-3.5389,-3.5404,-3.5184,-3.5182,-3.518,-3.5178,0,0,-3.5535,-3.5486,-3.5501,-3.5493,-3.5463,-3.5477,-3.5511,-3.5511,-3.5521,-3.5512,-3.5539,-3.5557,-3.5512,-3.5509,-3.547,-3.5501,-3.5602,-3.5448,-3.5447,-3.5478,-3.5694,-3.5731,-3.5751,-3.5569,-3.5572,-3.5574,-3.5696,0,-3.5658,-3.5711,-3.5659,-3.5723,-3.574,-3.5666,-3.5694,-3.568,-3.5653,-3.5665,-3.5636,-3.565,-3.5589,-3.5587,-3.5614,-3.5584,-3.5645,-3.5575,-3.5594,-3.5596,-3.5602,-3.5771,-3.581,-3.5926,-3.5711,-3.5713,-3.5715,0,-3.5808,-3.5805,-3.587,-3.5835,-3.5841,-3.5868,-3.5863,-3.5875,-3.5858,-3.5836,-3.5833,-3.5785,-3.5816,-3.5747,-3.5789,-3.5743,-3.5748,-3.5734,-3.5738,-3.5738,-3.5663,-3.5777,-3.5962,-3.598,-3.5738,-3.5736,-3.5735,0,-3.5949,-3.596,-3.6,-3.5996,-3.5957,-3.5977,-3.5962,-3.5941,-3.5944,-3.5941,-3.5942,-3.5944,-3.5944,-3.5947,-3.59,-3.5855,-3.5949,-3.5876,-3.5932,-3.5934,-3.5956,-3.5955,-3.6145,-3.5959,-3.5959,-3.5958,-3.5958,0,-3.6092,-3.6134,-3.6063,-3.6088,-3.6134,-3.6074,-3.6122,-3.6099,-3.6081,-3.61,-3.6036,-3.6057,-3.5994,-3.6008,-3.5972,-3.6012,-3.6013,-3.5997,-3.5987,-3.6003,-3.6005,-3.6006,-3.5997,-3.5963,-3.5962,-3.5961,-3.596,0,-3.6257,-3.621,-3.6249,-3.6209,-3.62,-3.6235,-3.6201,-3.6223,-3.6191,-3.6217,-3.622,-3.6171,-3.6184,-3.6138,-3.6144,-3.6119,-3.618,-3.6156,-3.6185,-3.6178,-3.6237,-3.6233,-3.6435,-3.6459,-3.6257,-3.6259,-3.6261,0,-3.6351,-3.6382,-3.6344,-3.6352,-3.634,-3.6354,-3.6357,-3.63,-3.6306,-3.6287,-3.6312,-3.6319,-3.6322,-3.6346,-3.6312,-3.6316,-3.6293,-3.6363,-3.6293,-3.6308,-3.6294,-3.6293,-3.6296,-3.6378,-3.6381,-3.6383,-3.6384,0,-3.6524,-3.6499,-3.6504,-3.6503,-3.6507,-3.6503,-3.6495,-3.6505,-3.6444,-3.6454,-3.6465,-3.6468,-3.6473,-3.6481,-3.6478,-3.6463,-3.6415,-3.6406,-3.642,-3.6437,-3.6453,-3.6445,-3.6226,-3.6402,-3.64,-3.6399,-3.6398,-3.6397,-3.6656,-3.668,-3.6657,-3.6666,-3.6653,-3.6647,-3.6665,-3.6636,-3.6644,-3.6643,-3.6609,-3.6628,-3.6609,-3.6599,-3.6589,-3.6604,-3.6571,-3.6591,-3.6595,-3.6601,-3.6612,-3.645,-3.6603,-3.6603,-3.6602,-3.6602,-3.6601,0,-3.6826,-3.6807,-3.6815,-3.6805,-3.6812,-3.6763,-3.6752,-3.6761,-3.6778,-3.6764,-3.6768,-3.6782,-3.6789,-3.6756,-3.6759,-3.6777,-3.6755,-3.678,-3.6778,-3.6776,-3.664,-3.6629,-3.6798,-3.6798,-3.6798,-3.6798,-3.6798,-3.6798,-3.6915,-3.6953,-3.6926,-3.6957,-3.6938,-3.6955,-3.6952,-3.6946,-3.6935,-3.6953,-3.6958,-3.6935,-3.6914,-3.6915,-3.692,-3.691,-3.6915,-3.6948,-3.6931,-3.6805,-3.6786,-3.6767,-3.6756,-3.6949,-3.695,-3.7065,-3.7066,-3.7067]}]]